Погода в Чалонге

Таиланд     7°51′28″N   98°20′22″E
темп.,
°C
ветер,
м/с
пор.,
м/с
влажн.,
%
обл.,
%
осадки,
мм/ч
давл.,
гПа
погр.,
м
21 апреля, ср
ср2101:00+29з4472100 0.0 1009753
04:00+29з4472100 0.0 1008883
07:00+29з4471100 0.0 1010916
10:00+29з457199 0.2 1012965
13:00+29зсз667284 0.2 1010932
16:00+29зсз6672100 0.1 1008948
19:00+29зсз6771100 0.1 1009946
22:00+29зсз6671100 0.0 10111035
22 апреля, чт
чт2201:00+29зсз667153 0.0 1010948
04:00+29зсз667274 0.0 1009952
07:00+29зсз6672100 0.0 10101035
10:00+29зсз7774100 0.7 1012904
13:00+29зсз7772100 1.1 10101089
16:00+29зсз6772100 0.1 10081026
19:00+29зсз6772100 0.1 1009995
22:00+30з677252 0.2 10111007
23 апреля, пт
пт2301:00+29з777486 0.2 1009980
04:00+29зсз7775100 0.9 1008937
07:00+29зсз777399 1.1 10091019
10:00+29зсз6772100 0.3 10111021
13:00+29з7773100 0.5 10101004
16:00+29з8974100 1.1 10071000
19:00+29зсз8975100 1.9 10091037
22:00+29зсз7872100 0.4 10111086
24 апреля, сб
сб2401:00+29зсз7873100 1.6 10091034
04:00+29зсз6774100 0.8 1008880
07:00+28зсз5575100 4.3 1010692
10:00+28з5675100 5.2 1011738
13:00+29з6674100 8.5 1010884
16:00+29зсз5674100 2.6 1008855
19:00+29зсз6774100 5.7 1010914
22:00+29зсз7774100 1.4 1011886
25 апреля, вс
вс2501:00+29з7873100 1.4 10101097
04:00+29з7874100 0.6 1008986
07:00+29зсз6772100 1.1 1010976
10:00+29зсз667290 0.4 10121014
13:00+29зсз6672100 1.8 1011961
16:00+29зсз5674100 2.2 1009709
19:00+29сз6672100 6.4 1010702
22:00+28сз567338 1.2 1012717